Volver al catálogo

STARLINK-11385

ActivoComunicacionesVLEO
NORAD 62014·PAYLOAD·🇺🇸 United States

Lanzado Nov 18, 2024 desde Vandenberg Space Force Base

Loading…

Próximos Pases (próximas 24 horas)

TLE

ActualizadoSource: CelesTrak SupGP

Época: Sep 15, 2026, 03:41 UTC

1 62014C 24213G   26258.15395833 -.00007667  00000+0 -63138-4 0  2585
2 62014  53.1574 187.4418 0001235  82.0082 162.0255 15.69720267    11

Sigue STARLINK-11385 en tiempo real con AllMySat

Download on the App Store